Location: Slave Lake
(55.2830°N, 114.7830°W)
Time: 19:29:51
(UTC-06:00)

Amateur Radio Satellites - All Passes

Search period start: 28 March 2017 18:59
Search period end: 29 March 2017 18:59
Location: Slave Lake, 55.2830°N, 114.7830°W

Satellite Date Start Highest point End Downlink Frequencies (MHz)
Time Altitude Azimuth
CUBESAT XI-V 28 Mar 19:22:07 19:26:38 51° 292° (WNW) 19:31:09 437.345
KKS-1 28 Mar 19:24:15 19:28:30 41° 295° (WNW) 19:32:42 437.445
M-CUBED/EXP-1 PRIME 28 Mar 19:25:47 19:29:09 20° 95° (E) 19:32:32 437.505
YUBILEINY 28 Mar 19:28:32 19:37:19 83° 77° (ENE) 19:46:04 435.215
AAUSAT CUBESAT 2 28 Mar 19:30:31 19:33:27 19° 57° (ENE) 19:36:23 437.432
O/OREOS (USA 219) 28 Mar 19:32:26 19:36:36 34° 316° (NW) 19:40:49 437.305
UWE-3 28 Mar 19:33:38 19:37:04 21° 57° (ENE) 19:40:29 435.000/436.395/437.385
XW-2A 28 Mar 19:34:32 19:37:54 51° 70° (ENE) 19:41:17 145.665 - 145.685
STRAND 1 28 Mar 19:35:57 19:38:02 12° 82° (E) 19:40:07 437.568
DOVE 4 28 Mar 19:37:15 19:41:38 32° 268° (W) 19:46:15 437.250
PCSat 28 Mar 19:42:55 19:47:48 34° 244° (WSW) 19:52:38 145.827
XW-2F 28 Mar 19:43:35 19:46:48 26° 266° (W) 19:50:02 145.980 - 146.000
LilacSat-2 28 Mar 19:49:42 19:52:44 22° 268° (W) 19:55:46 437.200
SEEDS 28 Mar 19:52:05 19:56:04 47° 68° (ENE) 20:00:05 437.485
STARS 28 Mar 19:53:35 19:57:48 43° 295° (WNW) 20:01:59 437.465
CUTE-I 28 Mar 19:57:11 20:01:58 32° 266° (W) 20:06:47 437.470
Oscar 11 28 Mar 19:57:30 20:00:20 17° 54° (NE) 20:03:10 .
NUDT-PHONESAT 28 Mar 20:02:13 20:05:04 20° 268° (W) 20:07:55 437.300
HO-68 28 Mar 20:02:58 20:10:08 85° 251° (WSW) 20:17:22 435.675
CUTE 1.7 + AOD 2 28 Mar 20:03:26 20:07:39 82° 74° (ENE) 20:11:53 437.475
ZACube-1 28 Mar 20:08:31 20:12:10 25° 60° (ENE) 20:15:47 437.345
CUBEBUG 2 28 Mar 20:11:02 20:15:39 55° 69° (ENE) 20:20:13 437.445
XW-2D 28 Mar 20:12:32 20:14:40 14° 272° (W) 20:16:50 145.860 - 145.880
KAITUO 1B 28 Mar 20:13:13 20:15:39 16° 271° (W) 20:18:06 145.475/437.950
XW-2B 28 Mar 20:18:54 20:20:45 13° 273° (W) 20:22:36 145.730 - 145.750
SO-50 28 Mar 20:22:35 20:26:28 26° 8° (N) 20:30:18 436.795
DELFI C3 28 Mar 20:29:34 20:31:00 12° 51° (NE) 20:32:26 145.870
XW-2C 28 Mar 20:30:33 20:31:13 10° 276° (W) 20:31:51 145.795 - 145.815
RS-15 28 Mar 20:30:56 20:43:24 72° 32° (NNE) 20:55:30 29.354- 29.394
AO-73 28 Mar 20:34:52 20:38:58 36° 65° (ENE) 20:43:01 145.935
M-CUBED/EXP-1 PRIME 28 Mar 20:59:26 21:04:03 81° 296° (WNW) 21:08:45 437.505
CUBESAT XI-V 28 Mar 21:01:22 21:03:04 12° 313° (NW) 21:04:45 437.345
AO-85 28 Mar 21:02:16 21:05:02 17° 117° (ESE) 21:07:43 145.980
AAUSAT CUBESAT 2 28 Mar 21:04:23 21:08:30 71° 258° (WSW) 21:12:37 437.432
UWE-3 28 Mar 21:08:28 21:13:06 76° 257° (WSW) 21:17:40 435.000/436.395/437.385
XW-2A 28 Mar 21:08:37 21:10:58 17° 269° (W) 21:13:19 145.665 - 145.685
STRAND 1 28 Mar 21:13:08 21:18:16 65° 103° (ESE) 21:23:21 437.568
O/OREOS (USA 219) 28 Mar 21:15:14 21:17:26 13° 340° (NNW) 21:19:37 437.305
YUBILEINY 28 Mar 21:26:03 21:33:16 31° 282° (WNW) 21:40:28 435.215
SEEDS 28 Mar 21:28:31 21:31:59 25° 267° (W) 21:35:29 437.485
Oscar 11 28 Mar 21:31:36 21:35:56 88° 260° (W) 21:40:16 .
STARS 28 Mar 21:32:54 21:33:07 10° 316° (NW) 21:33:21 437.465
CUTE 1.7 + AOD 2 28 Mar 21:41:36 21:44:05 15° 273° (W) 21:46:34 437.475
ZACube-1 28 Mar 21:43:44 21:48:12 58° 259° (W) 21:52:35 437.345
CUBEBUG 2 28 Mar 21:48:33 21:52:33 27° 268° (W) 21:56:31 437.445
HO-68 28 Mar 21:53:26 21:58:55 23° 273° (W) 22:04:28 435.675
DELFI C3 28 Mar 22:01:10 22:05:04 65° 71° (ENE) 22:09:00 145.870
SO-50 28 Mar 22:03:24 22:07:50 49° 31° (NNE) 22:12:12 436.795
PRISM 28 Mar 22:03:44 22:05:21 12° 85° (E) 22:06:59 437.425
Tancredo 1 28 Mar 22:06:02 22:08:32 22° 155° (SSE) 22:11:03 437.200
AO-73 28 Mar 22:11:04 22:15:14 37° 264° (W) 22:19:21 145.935
ISS 28 Mar 22:17:27 22:20:08 24° 156° (SSE) 22:22:51 437.550
M-CUBED/EXP-1 PRIME 28 Mar 22:34:40 22:37:55 19° 314° (NW) 22:41:12 437.505
ESTCUBE 1 28 Mar 22:39:07 22:42:30 22° 56° (NE) 22:45:55 437.505/2401.250
AO-85 28 Mar 22:40:41 22:44:56 86° 136° (SE) 22:48:59 145.980
RS-15 28 Mar 22:43:57 22:55:50 58° 241° (WSW) 23:07:17 29.354- 29.394
AAUSAT CUBESAT 2 28 Mar 22:43:59 22:44:46 10° 277° (W) 22:45:34 437.432
UWE-3 28 Mar 22:48:09 22:50:19 13° 276° (W) 22:52:30 435.000/436.395/437.385
LO-87 28 Mar 22:49:26 22:52:41 31° 65° (ENE) 22:55:56 145.935 - 145.965
STRAND 1 28 Mar 22:52:49 22:57:08 28° 304° (WNW) 23:01:25 437.568
O/OREOS (USA 219) 28 Mar 22:58:26 22:59:00 10° 6° (N) 22:59:34 437.305
Oscar 11 28 Mar 23:10:28 23:12:44 14° 274° (W) 23:15:01 .
TIGRISAT 28 Mar 23:27:04 23:31:12 36° 96° (E) 23:35:13 435.000
BEESAT 3 28 Mar 23:28:30 23:32:13 41° 127° (SE) 23:36:01 437.485
50 SAT 28 Mar 23:33:56 23:35:24 12° 54° (NE) 23:36:53 437.505
PRISM 28 Mar 23:37:11 23:41:23 79° 106° (ESE) 23:45:33 437.425
DELFI C3 28 Mar 23:37:39 23:40:17 17° 271° (W) 23:42:56 145.870
UNISAT 6 28 Mar 23:37:58 23:42:18 47° 99° (E) 23:46:31 437.425
VELOX 1 28 Mar 23:39:50 23:43:31 26° 59° (ENE) 23:47:14 145.980
Tancredo 1 28 Mar 23:41:10 23:44:12 41° 174° (S) 23:47:14 437.200
SO-50 28 Mar 23:44:01 23:48:19 44° 233° (SW) 23:52:35 436.795
UKube-1 28 Mar 23:45:07 23:47:06 13° 49° (NE) 23:49:06 .
BEESAT 2 28 Mar 23:50:15 23:53:48 31° 123° (ESE) 23:57:23 435.950
ISS 28 Mar 23:53:02 23:56:10 43° 176° (S) 23:59:19 437.550
FO-29 29 Mar 00:02:30 00:08:32 50° 98° (E) 00:13:54 435.910
SPROUT 29 Mar 00:03:50 00:07:44 34° 63° (ENE) 00:11:38 437.525
POLYITAN 1 29 Mar 00:06:13 00:07:29 11° 84° (E) 00:08:45 437.675
QB50P2 29 Mar 00:10:21 00:12:23 13° 85° (E) 00:14:24 145.880/145.840
ESTCUBE 1 29 Mar 00:14:26 00:18:54 72° 255° (WSW) 00:23:25 437.505/2401.250
DUCHIFAT 1 29 Mar 00:18:35 00:20:22 12° 85° (E) 00:22:07 145.980
AO-85 29 Mar 00:22:07 00:25:45 29° 338° (NNW) 00:29:17 145.980
LO-87 29 Mar 00:22:54 00:26:08 30° 264° (W) 00:29:25 145.935 - 145.965
O/OREOS (USA 219) 29 Mar 00:37:04 00:40:20 19° 31° (NNE) 00:43:36 437.305
DX 1 29 Mar 00:43:41 00:47:47 42° 65° (ENE) 00:51:57 434.975-435.025
AIST 2D 29 Mar 00:47:15 00:50:33 37° 98° (E) 00:53:48 435.315
RS-15 29 Mar 00:58:07 01:05:24 19° 267° (W) 01:12:33 29.354- 29.394
TIGRISAT 29 Mar 01:03:49 01:07:54 36° 297° (WNW) 01:11:54 435.000
50 SAT 29 Mar 01:04:26 01:07:54 87° 72° (ENE) 01:11:24 437.505
NANOSAT C BR1 29 Mar 01:04:41 01:08:32 33° 96° (E) 01:12:21 145.865
BEESAT 3 29 Mar 01:06:01 01:09:51 44° 328° (NNW) 01:13:44 437.485
ITUPSAT 1 29 Mar 01:10:15 01:11:40 11° 43° (NE) 01:13:05 437.325
EO-79 29 Mar 01:10:55 01:14:56 40° 97° (E) 01:18:56 145.935-145.965
PRISM 29 Mar 01:13:19 01:16:12 18° 305° (NW) 01:19:04 437.425
UNISAT 6 29 Mar 01:15:01 01:18:51 29° 300° (WNW) 01:22:37 437.425
VELOX 1 29 Mar 01:15:24 01:19:44 54° 259° (W) 01:24:08 145.980
Tancredo 1 29 Mar 01:17:03 01:20:00 34° 194° (SSW) 01:22:56 437.200
UKube-1 29 Mar 01:18:05 01:22:21 62° 69° (ENE) 01:26:39 .
BEESAT 2 29 Mar 01:27:28 01:31:25 55° 324° (NW) 01:35:25 435.950
ISS 29 Mar 01:29:17 01:32:19 34° 195° (SSW) 01:35:20 437.550
SPROUT 29 Mar 01:39:35 01:43:37 38° 263° (W) 01:47:41 437.525
POLYITAN 1 29 Mar 01:39:49 01:44:06 72° 104° (ESE) 01:48:18 437.675
QB50P2 29 Mar 01:44:36 01:48:54 84° 108° (ESE) 01:53:08 145.880/145.840
FO-29 29 Mar 01:47:47 01:53:33 39° 302° (WNW) 01:58:43 435.910
DUCHIFAT 1 29 Mar 01:52:31 01:56:47 80° 105° (ESE) 02:00:59 145.980
ESTCUBE 1 29 Mar 01:54:54 01:56:34 12° 277° (W) 01:58:15 437.505/2401.250
BUGSAT 1 29 Mar 01:57:38 02:01:33 36° 97° (E) 02:05:23 437.445
AO-85 29 Mar 02:04:06 02:07:12 21° 2° (N) 02:10:16 145.980
O/OREOS (USA 219) 29 Mar 02:16:03 02:20:40 63° 54° (NE) 02:25:14 437.305
DX 1 29 Mar 02:20:15 02:24:07 31° 265° (W) 02:28:02 434.975-435.025
MOZHAYETS 4 29 Mar 02:20:26 02:23:15 16° 52° (NE) 02:26:04
AIST 2D 29 Mar 02:20:47 02:23:38 24° 297° (WNW) 02:26:30 435.315
Oscar 19 29 Mar 02:22:40 02:26:59 26° 92° (E) 02:31:18 437.125/150
BEESAT 29 Mar 02:26:05 02:30:22 34° 61° (ENE) 02:34:41 436.000
NANOSAT C BR1 29 Mar 02:40:23 02:44:19 37° 296° (WNW) 02:48:12 145.865
50 SAT 29 Mar 02:40:38 02:41:31 11° 274° (W) 02:42:23 437.505
ITUPSAT 1 29 Mar 02:43:53 02:48:26 45° 64° (ENE) 02:53:00 437.325
BEESAT 3 29 Mar 02:45:06 02:48:18 22° 351° (N) 02:51:31 437.485
EO-79 29 Mar 02:46:52 02:50:39 32° 298° (WNW) 02:54:25 145.935-145.965
Tancredo 1 29 Mar 02:53:44 02:55:29 14° 213° (SSW) 02:57:16 437.200
UKube-1 29 Mar 02:55:30 02:58:47 21° 269° (W) 03:02:05 .
Gurwin Techsat 1B 29 Mar 02:58:58 03:03:43 31° 94° (E) 03:08:25 435.225
ISS 29 Mar 03:06:23 03:08:08 14° 214° (SW) 03:09:52 437.550
BEESAT 2 29 Mar 03:06:37 03:09:56 24° 347° (NNW) 03:13:17 435.950
POLYITAN 1 29 Mar 03:16:22 03:19:28 20° 304° (NW) 03:22:32 437.675
KKS-1 29 Mar 03:18:24 03:21:00 15° 50° (NE) 03:23:36 437.445
CUBESAT XI-V 29 Mar 03:20:53 03:23:02 13° 48° (NE) 03:25:11 437.345
QB50P2 29 Mar 03:21:19 03:24:10 18° 305° (NW) 03:27:00 145.880/145.840
DUCHIFAT 1 29 Mar 03:29:03 03:31:58 18° 305° (NW) 03:34:51 145.980
BUGSAT 1 29 Mar 03:33:05 03:36:54 33° 297° (WNW) 03:40:38 437.445
FO-29 29 Mar 03:34:17 03:36:55 13° 327° (NNW) 03:39:26 435.910
AO-85 29 Mar 03:44:56 03:48:35 34° 27° (NNE) 03:52:14 145.980
STARS 29 Mar 03:46:59 03:49:17 14° 49° (NE) 03:51:38 437.465
MOZHAYETS 4 29 Mar 03:55:09 03:59:45 78° 73° (ENE) 04:04:21
O/OREOS (USA 219) 29 Mar 03:56:01 03:59:43 24° 255° (WSW) 04:03:25 437.305
Oscar 19 29 Mar 04:01:37 04:06:44 64° 292° (WNW) 04:11:51 437.125/150
BEESAT 29 Mar 04:03:29 04:08:04 45° 261° (W) 04:12:41 436.000
ITAMSAT 1 29 Mar 04:15:43 04:20:08 27° 92° (E) 04:24:32 435.822/435.867
ITUPSAT 1 29 Mar 04:22:04 04:26:24 33° 264° (W) 04:30:46 437.325
BEESAT 3 29 Mar 04:23:42 04:27:02 24° 14° (NNE) 04:30:23 437.485
AO-7 29 Mar 04:38:21 04:45:57 37° 95° (E) 04:53:28 .
Gurwin Techsat 1B 29 Mar 04:38:45 04:43:58 55° 294° (WNW) 04:49:09 435.225
BEESAT 2 29 Mar 04:45:35 04:48:51 23° 11° (N) 04:52:09 435.950
M-CUBED/EXP-1 PRIME 29 Mar 04:45:47 04:48:05 15° 42° (NE) 04:50:29 437.505
KKS-1 29 Mar 04:52:23 04:56:51 73° 71° (ENE) 05:01:22 437.445
CUBESAT XI-V 29 Mar 04:55:02 04:59:33 59° 69° (ENE) 05:04:06 437.345
STARS 29 Mar 05:20:29 05:24:52 66° 70° (ENE) 05:29:19 437.465
STRAND 1 29 Mar 05:23:46 05:24:37 10° 39° (NE) 05:25:27 437.568
AO-85 29 Mar 05:25:20 05:29:12 59° 228° (SW) 05:33:06 145.980
MOZHAYETS 4 29 Mar 05:34:19 05:37:29 18° 272° (W) 05:40:38
Oscar 19 29 Mar 05:42:06 05:45:12 16° 313° (NW) 05:48:17 437.125/150
ITAMSAT 1 29 Mar 05:54:51 06:00:00 62° 293° (WNW) 06:05:07 435.822/435.867
BEESAT 3 29 Mar 06:01:21 06:05:21 58° 37° (NE) 06:09:21 437.485
M-CUBED/EXP-1 PRIME 29 Mar 06:17:49 06:21:44 64° 63° (ENE) 06:26:00 437.505
Gurwin Techsat 1B 29 Mar 06:20:01 06:22:54 15° 316° (NW) 06:25:47 435.225
BEESAT 2 29 Mar 06:23:30 06:27:28 48° 34° (NNE) 06:31:25 435.950
CUTE-I 29 Mar 06:27:42 06:29:51 12° 81° (E) 06:31:59 437.470
KKS-1 29 Mar 06:30:44 06:33:56 19° 271° (W) 06:37:09 437.445
AO-7 29 Mar 06:31:07 06:39:23 73° 298° (WNW) 06:47:37 .
CUBESAT XI-V 29 Mar 06:33:36 06:37:18 24° 269° (W) 06:41:01 437.345
YUBILEINY 29 Mar 06:45:22 06:51:21 21° 72° (ENE) 06:57:20 435.215
STRAND 1 29 Mar 06:57:47 07:02:30 37° 61° (ENE) 07:07:14 437.568
STARS 29 Mar 06:58:21 07:01:40 20° 270° (W) 07:05:01 437.465
XW-2F 29 Mar 07:08:17 07:11:09 21° 91° (E) 07:14:01 145.980 - 146.000
AO-85 29 Mar 07:08:19 07:08:47 10° 248° (WSW) 07:09:16 145.980
LilacSat-2 29 Mar 07:14:54 07:18:06 25° 94° (E) 07:21:16 437.200
HO-68 29 Mar 07:24:36 07:27:44 13° 78° (ENE) 07:30:52 435.675
NUDT-PHONESAT 29 Mar 07:24:41 07:27:47 25° 94° (E) 07:30:51 437.300
DOVE 4 29 Mar 07:27:40 07:32:52 50° 98° (E) 07:37:58 437.250
ITAMSAT 1 29 Mar 07:35:30 07:38:34 16° 314° (NW) 07:41:38 435.822/435.867
KAITUO 1B 29 Mar 07:35:41 07:39:02 31° 96° (E) 07:42:23 145.475/437.950
XW-2D 29 Mar 07:35:45 07:39:19 39° 98° (E) 07:42:51 145.860 - 145.880
NO-84 29 Mar 07:36:36 07:38:31 17° 143° (SE) 07:40:27 435.350 FM
BEESAT 3 29 Mar 07:39:15 07:42:46 29° 237° (WSW) 07:46:15 437.485
XW-2B 29 Mar 07:41:45 07:45:22 43° 99° (E) 07:48:57 145.730 - 145.750
XW-2C 29 Mar 07:52:01 07:55:45 56° 101° (E) 07:59:26 145.795 - 145.815
M-CUBED/EXP-1 PRIME 29 Mar 07:53:44 07:56:39 20° 265° (W) 07:59:45 437.505
BEESAT 2 29 Mar 08:01:24 08:05:12 38° 234° (SW) 08:08:59 435.950
CUTE-I 29 Mar 08:05:42 08:11:03 62° 102° (ESE) 08:16:20 437.470
XW-2A 29 Mar 08:22:32 08:25:07 20° 92° (E) 08:27:41 145.665 - 145.685
AO-7 29 Mar 08:24:20 08:31:03 29° 322° (NW) 08:37:45 .
STRAND 1 29 Mar 08:36:42 08:41:39 45° 262° (W) 08:46:36 437.568
YUBILEINY 29 Mar 08:38:00 08:46:40 73° 95° (E) 08:55:20 435.215
FO-29 29 Mar 08:38:49 08:43:44 20° 43° (NE) 08:48:20 435.910
AAUSAT CUBESAT 2 29 Mar 08:40:44 08:42:25 12° 85° (E) 08:44:04 437.432
XW-2F 29 Mar 08:41:57 08:45:34 48° 291° (WNW) 08:49:10 145.980 - 146.000
LilacSat-2 29 Mar 08:48:58 08:52:31 39° 293° (WNW) 08:56:03 437.200
UWE-3 29 Mar 08:52:09 08:54:27 14° 85° (E) 08:56:42 435.000/436.395/437.385
TIGRISAT 29 Mar 08:57:54 09:00:45 16° 52° (NE) 09:03:34 435.000
NUDT-PHONESAT 29 Mar 08:58:23 09:01:50 38° 293° (WNW) 09:05:16 437.300
PRISM 29 Mar 08:59:01 09:02:17 24° 59° (ENE) 09:05:35 437.425
SEEDS 29 Mar 09:04:00 09:07:50 33° 95° (E) 09:11:39 437.485
DOVE 4 29 Mar 09:05:35 09:10:25 36° 298° (WNW) 09:15:11 437.250
UNISAT 6 29 Mar 09:08:24 09:11:44 20° 55° (NE) 09:15:03 437.425
KAITUO 1B 29 Mar 09:09:46 09:13:03 30° 296° (WNW) 09:16:20 145.475/437.950
HO-68 29 Mar 09:10:12 09:17:14 54° 101° (E) 09:24:13 435.675
XW-2D 29 Mar 09:10:14 09:13:24 26° 297° (WNW) 09:16:34 145.860 - 145.880
NO-84 29 Mar 09:12:47 09:15:35 58° 163° (SSE) 09:18:28 435.350 FM
Oscar 11 29 Mar 09:13:28 09:14:48 11° 83° (E) 09:16:07 .
XW-2B 29 Mar 09:16:20 09:19:24 24° 298° (WNW) 09:22:26 145.730 - 145.750
CUTE 1.7 + AOD 2 29 Mar 09:16:37 09:20:49 61° 101° (E) 09:25:00 437.475
ZACube-1 29 Mar 09:25:30 09:28:21 17° 88° (E) 09:31:09 437.345
XW-2C 29 Mar 09:26:52 09:29:39 20° 301° (WNW) 09:32:25 145.795 - 145.815
CUBEBUG 2 29 Mar 09:31:11 09:35:27 43° 98° (E) 09:39:33 437.445
CUTE-I 29 Mar 09:46:11 09:50:50 31° 303° (WNW) 09:55:27 437.470
AO-73 29 Mar 09:51:35 09:55:10 26° 92° (E) 09:58:42 145.935
XW-2A 29 Mar 09:54:52 09:58:05 41° 292° (WNW) 10:01:17 145.665 - 145.685
AAUSAT CUBESAT 2 29 Mar 10:14:24 10:18:35 80° 103° (ESE) 10:22:45 437.432
AO-7 29 Mar 10:16:49 10:21:17 16° 349° (N) 10:25:45 .
FO-29 29 Mar 10:20:14 10:27:38 57° 65° (ENE) 10:34:22 435.910
UWE-3 29 Mar 10:27:14 10:31:38 89° 127° (SE) 10:35:51 435.000/436.395/437.385
NANOSAT C BR1 29 Mar 10:30:40 10:32:30 13° 50° (NE) 10:34:20 145.865
PCSat 29 Mar 10:30:53 10:36:04 48° 121° (ESE) 10:41:18 145.827
TIGRISAT 29 Mar 10:32:05 10:36:45 76° 72° (ENE) 10:41:22 435.000
PRISM 29 Mar 10:33:18 10:37:19 55° 259° (W) 10:41:23 437.425
YUBILEINY 29 Mar 10:36:17 10:44:15 38° 301° (WNW) 10:52:17 435.215
EO-79 29 Mar 10:36:38 10:39:01 15° 52° (NE) 10:41:24 145.935-145.965
SEEDS 29 Mar 10:39:43 10:43:34 36° 295° (WNW) 10:47:25 437.485
UNISAT 6 29 Mar 10:43:15 10:47:56 84° 255° (WSW) 10:52:35 437.425
DOVE 4 29 Mar 10:46:08 10:46:43 10° 320° (NW) 10:47:19 437.250
Oscar 11 29 Mar 10:47:26 10:51:45 71° 104° (ESE) 10:56:03 .
NO-84 29 Mar 10:50:10 10:53:02 86° 192° (SSW) 10:56:04 435.350 FM
CUTE 1.7 + AOD 2 29 Mar 10:53:04 10:56:20 22° 301° (WNW) 10:59:37 437.475
HO-68 29 Mar 10:58:10 11:04:56 47° 303° (WNW) 11:11:43 435.675
ZACube-1 29 Mar 11:00:54 11:05:10 72° 289° (WNW) 11:09:20 437.345
POLYITAN 1 29 Mar 11:04:29 11:07:52 23° 58° (ENE) 11:11:15 437.675
DELFI C3 29 Mar 11:05:41 11:09:27 39° 98° (E) 11:13:12 145.870
CUBEBUG 2 29 Mar 11:08:02 11:11:57 30° 299° (WNW) 11:15:45 437.445
QB50P2 29 Mar 11:09:02 11:12:36 26° 60° (ENE) 11:16:10 145.880/145.840
RS-15 29 Mar 11:11:37 11:16:57 14° 88° (E) 11:22:18 29.354- 29.394
DUCHIFAT 1 29 Mar 11:16:22 11:19:49 24° 59° (ENE) 11:23:16 145.980
BUGSAT 1 29 Mar 11:21:14 11:23:17 13° 51° (NE) 11:25:21 437.445
AO-73 29 Mar 11:27:34 11:31:39 45° 293° (WNW) 11:35:37 145.935
AIST 2D 29 Mar 11:28:18 11:31:41 43° 69° (ENE) 11:35:03 435.315
LO-87 29 Mar 11:43:13 11:45:24 15° 88° (E) 11:47:34 145.935 - 145.965
AAUSAT CUBESAT 2 29 Mar 11:50:47 11:53:35 18° 304° (NW) 11:56:22 437.432
ESTCUBE 1 29 Mar 12:00:28 12:03:11 16° 87° (E) 12:05:53 437.505/2401.250
NANOSAT C BR1 29 Mar 12:03:13 12:07:26 62° 69° (ENE) 12:11:40 145.865
UWE-3 29 Mar 12:04:41 12:07:30 17° 306° (NW) 12:10:15 435.000/436.395/437.385
FO-29 29 Mar 12:05:37 12:12:52 44° 264° (W) 12:19:32 435.910
AO-7 29 Mar 12:06:13 12:11:01 17° 16° (NNE) 12:15:50 .
Oscar 19 29 Mar 12:09:39 12:13:04 18° 49° (NE) 12:16:29 437.125/150
EO-79 29 Mar 12:09:49 12:14:06 75° 71° (ENE) 12:18:24 145.935-145.965
TIGRISAT 29 Mar 12:10:37 12:13:58 19° 272° (W) 12:17:17 435.000
PCSat 29 Mar 12:14:15 12:19:32 50° 323° (NW) 12:24:51 145.827
UNISAT 6 29 Mar 12:22:43 12:25:21 15° 274° (W) 12:27:59 437.425
Oscar 11 29 Mar 12:24:18 12:27:29 20° 303° (WNW) 12:30:39 .
NO-84 29 Mar 12:27:38 12:30:27 41° 204° (SSW) 12:33:26 435.350 FM
ZACube-1 29 Mar 12:38:34 12:40:44 14° 309° (NW) 12:42:52 437.345
POLYITAN 1 29 Mar 12:39:05 12:43:20 61° 258° (WSW) 12:47:37 437.675
YUBILEINY 29 Mar 12:39:58 12:44:24 14° 331° (NNW) 12:48:50 435.215
DELFI C3 29 Mar 12:40:41 12:44:09 29° 297° (WNW) 12:47:37 145.870
QB50P2 29 Mar 12:43:59 12:48:11 52° 260° (W) 12:52:23 145.880/145.840
HO-68 29 Mar 12:46:43 12:51:08 18° 327° (NNW) 12:55:33 435.675
Gurwin Techsat 1B 29 Mar 12:49:11 12:53:14 23° 52° (NE) 12:57:19 435.225
DUCHIFAT 1 29 Mar 12:51:02 12:55:13 55° 259° (W) 12:59:26 145.980
BUGSAT 1 29 Mar 12:53:41 12:57:55 67° 71° (ENE) 13:02:10 437.445
VELOX 1 29 Mar 12:58:36 13:01:42 18° 89° (E) 13:04:48 145.980
AIST 2D 29 Mar 13:02:24 13:05:07 20° 268° (W) 13:07:49 435.315
RS-15 29 Mar 13:14:42 13:26:01 49° 115° (ESE) 13:37:33 29.354- 29.394
LO-87 29 Mar 13:15:38 13:19:17 67° 288° (WNW) 13:22:54 145.935 - 145.965
SPROUT 29 Mar 13:17:57 13:21:26 23° 92° (E) 13:24:52 437.525
ESTCUBE 1 29 Mar 13:36:06 13:40:39 89° 281° (WNW) 13:45:10 437.505/2401.250
NANOSAT C BR1 29 Mar 13:40:19 13:43:33 20° 270° (W) 13:46:46 145.865
Oscar 19 29 Mar 13:46:31 13:51:38 75° 70° (ENE) 13:56:47 437.125/150
EO-79 29 Mar 13:47:33 13:50:24 17° 272° (W) 13:53:15 145.935-145.965
AO-7 29 Mar 13:54:22 14:01:29 33° 43° (NE) 14:08:37 .
50 SAT 29 Mar 13:54:34 13:57:48 33° 97° (E) 14:01:00 437.505
FO-29 29 Mar 13:58:15 13:59:39 11° 285° (WNW) 14:01:02 435.910
PCSat 29 Mar 13:59:36 14:04:08 26° 348° (NNW) 14:08:39 145.827
DX 1 29 Mar 14:00:32 14:04:22 28° 94° (E) 14:08:10 434.975-435.025
ITAMSAT 1 29 Mar 14:03:23 14:07:07 20° 50° (NE) 14:10:51 435.822/435.867
NO-84 29 Mar 14:06:18 14:07:26 12° 222° (SW) 14:08:35 435.350 FM
Gurwin Techsat 1B 29 Mar 14:27:17 14:32:37 88° 254° (WSW) 14:38:00 435.225
BUGSAT 1 29 Mar 14:30:38 14:33:42 19° 270° (W) 14:36:47 437.445
UKube-1 29 Mar 14:33:42 14:37:49 40° 98° (E) 14:41:55 .
VELOX 1 29 Mar 14:34:13 14:38:42 75° 288° (WNW) 14:43:09 145.980
LO-87 29 Mar 14:51:06 14:52:03 11° 308° (NW) 14:52:58 145.935 - 145.965
SPROUT 29 Mar 14:53:26 14:57:39 54° 291° (WNW) 15:01:50 437.525
ESTCUBE 1 29 Mar 15:13:52 15:16:52 18° 307° (NW) 15:19:54 437.505/2401.250
RS-15 29 Mar 15:25:41 15:37:59 80° 323° (NW) 15:50:28 29.354- 29.394
Oscar 19 29 Mar 15:27:35 15:31:32 22° 271° (W) 15:35:30 437.125/150
50 SAT 29 Mar 15:27:45 15:30:46 27° 297° (WNW) 15:33:48 437.505
DX 1 29 Mar 15:36:31 15:40:44 46° 294° (WNW) 15:44:57 434.975-435.025
ITAMSAT 1 29 Mar 15:40:40 15:45:55 82° 71° (ENE) 15:51:11 435.822/435.867
SO-50 29 Mar 15:44:17 15:48:43 49° 128° (SE) 15:53:08 436.795
PCSat 29 Mar 15:44:34 15:49:09 26° 14° (NNE) 15:53:43 145.827
MOZHAYETS 4 29 Mar 15:44:47 15:46:15 11° 83° (E) 15:47:43
AO-7 29 Mar 15:45:07 15:53:28 87° 66° (ENE) 16:01:50 .
BEESAT 29 Mar 15:56:05 16:00:11 27° 93° (E) 16:04:14 436.000
Gurwin Techsat 1B 29 Mar 16:09:45 16:13:22 18° 274° (W) 16:17:00 435.225
UKube-1 29 Mar 16:09:55 16:13:48 33° 298° (WNW) 16:17:41 .
VELOX 1 29 Mar 16:11:49 16:14:28 16° 309° (NW) 16:17:07 145.980
ITUPSAT 1 29 Mar 16:14:28 16:18:55 37° 97° (E) 16:23:20 437.325
HO-68 29 Mar 16:18:29 16:20:52 12° 20° (NNE) 16:23:14 435.675
CUTE-I 29 Mar 16:19:54 16:21:43 12° 39° (NE) 16:23:34 437.470
SPROUT 29 Mar 16:31:18 16:32:41 11° 312° (NW) 16:34:05 437.525
O/OREOS (USA 219) 29 Mar 16:37:19 16:40:11 17° 101° (E) 16:43:06 437.305
YUBILEINY 29 Mar 16:42:15 16:48:16 20° 40° (NE) 16:54:14 435.215
XW-2B 29 Mar 16:59:03 16:59:53 11° 51° (NE) 17:00:42 145.730 - 145.750
DOVE 4 29 Mar 17:03:52 17:07:39 22° 54° (NE) 17:11:34 437.250
XW-2C 29 Mar 17:08:22 17:10:06 13° 54° (NE) 17:11:50 145.795 - 145.815
DX 1 29 Mar 17:15:06 17:15:56 10° 315° (NW) 17:16:48 434.975-435.025
MOZHAYETS 4 29 Mar 17:19:45 17:24:19 68° 102° (ESE) 17:28:52
ITAMSAT 1 29 Mar 17:22:11 17:26:02 20° 271° (W) 17:29:54 435.822/435.867
SO-50 29 Mar 17:24:48 17:29:16 47° 330° (NNW) 17:33:42 436.795
PCSat 29 Mar 17:28:18 17:33:40 54° 38° (NE) 17:39:00 145.827
BEESAT 29 Mar 17:33:36 17:38:15 54° 294° (WNW) 17:42:52 436.000
RS-15 29 Mar 17:40:09 17:52:17 56° 354° (N) 18:04:21 29.354- 29.394
AO-7 29 Mar 17:40:15 17:47:16 29° 269° (W) 17:54:19 .
ITUPSAT 1 29 Mar 17:52:21 17:56:49 40° 297° (WNW) 18:01:15 437.325
CUTE-I 29 Mar 17:55:30 18:00:30 41° 61° (ENE) 18:05:31 437.470
XW-2F 29 Mar 17:55:52 17:59:10 29° 64° (ENE) 18:02:28 145.980 - 146.000
HO-68 29 Mar 18:00:37 18:06:21 27° 45° (NE) 18:12:05 435.675
LilacSat-2 29 Mar 18:03:23 18:06:55 36° 66° (ENE) 18:10:26 437.200
NUDT-PHONESAT 29 Mar 18:10:43 18:14:06 34° 66° (ENE) 18:17:30 437.300
KKS-1 29 Mar 18:12:24 18:16:49 52° 101° (E) 18:21:12 437.445
O/OREOS (USA 219) 29 Mar 18:14:24 18:18:59 88° 310° (NW) 18:23:36 437.305
CUBESAT XI-V 29 Mar 18:21:12 18:25:47 54° 100° (E) 18:30:22 437.345
KAITUO 1B 29 Mar 18:22:21 18:25:55 44° 69° (ENE) 18:29:29 145.475/437.950
XW-2D 29 Mar 18:23:36 18:27:19 55° 71° (ENE) 18:31:02 145.860 - 145.880
XW-2B 29 Mar 18:29:35 18:33:21 62° 71° (ENE) 18:37:05 145.730 - 145.750
SEEDS 29 Mar 18:30:09 18:31:29 11° 50° (NE) 18:32:50 437.485
STARS 29 Mar 18:38:43 18:43:01 45° 99° (E) 18:47:15 437.465
YUBILEINY 29 Mar 18:38:56 18:47:30 55° 68° (ENE) 18:56:01 435.215
DOVE 4 29 Mar 18:39:49 18:44:44 85° 255° (WSW) 18:49:58 437.250
XW-2C 29 Mar 18:39:54 18:43:42 79° 74° (ENE) 18:47:30 145.795 - 145.815
CUTE 1.7 + AOD 2 29 Mar 18:41:54 18:44:49 19° 56° (NE) 18:47:44 437.475
